EW4538 Weather Reports


time (UTC)temp
F
wind
direction
speed
knots
gust
knots
rain 1hr
in
rain 24hr
in
rain mn
in
humidity
%
barometer
mb
20260902174304 99 161 2.6 7.0 0.00 0.00 0.00 37 1013.9
20260902173804 98 251 0.9 4.3 0.00 0.00 0.00 36 1014.0
20260902173304 98 221 0.9 8.7 0.00 0.00 0.00 38 1014.1
20260902171804 97 99 2.6 7.0 0.00 0.00 0.00 38 1014.3
20260902170305 97 248 1.7 7.8 0.00 0.00 0.00 39 1014.5
20260902164804 96 198 1.7 4.3 0.00 0.00 0.00 41 1014.7
20260902164304 94 266 0.9 7.8 0.00 0.00 0.00 44 1014.7
20260902163804 94 186 2.6 8.7 0.00 0.00 0.00 43 1014.8
20260902163303 94 176 2.6 7.8 0.00 0.00 0.00 44 1014.8
20260902161804 93 164 5.2 7.8 0.00 0.00 0.00 44 1014.9
20260902160804 92 230 0.9 2.6 0.00 0.00 0.00 48 1015.0
20260902160304 91 219 3.5 7.8 0.00 0.00 0.00 46 1015.0
20260902154804 90 212 1.7 4.3 0.00 0.00 0.00 50 1015.0
20260902154304 89 336 2.6 8.7 0.00 0.00 0.00 51 1015.0
20260902153804 89 302 3.5 7.8 0.00 0.00 0.00 52 1015.0
20260902151304 86 301 3.5 8.7 0.00 0.00 0.00 58 1015.1
20260902150804 85 318 1.7 7.0 0.00 0.00 0.00 59 1015.1
20260902150304 85 298 2.6 7.0 0.00 0.00 0.00 59 1015.1
20260902144804 83 305 2.6 7.0 0.00 0.00 0.00 63 1015.1
20260902144304 83 305 2.6 5.2 0.00 0.00 0.00 62 1015.1
20260902143804 83 293 1.7 5.2 0.00 0.00 0.00 64 1015.2
20260902143304 82 304 1.7 5.2 0.00 0.00 0.00 65 1015.2
20260902141804 82 289 1.7 2.6 0.00 0.00 0.00 66 1015.2
20260902141304 81 289 0.9 2.6 0.00 0.00 0.00 67 1015.2
20260902140303 81 245 0.0 1.7 0.00 0.00 0.00 67 1015.2
20260902134804 81 244 0.0 0.9 0.00 0.00 0.00 67 1015.2
20260902134304 81 244 0.0 0.9 0.00 0.00 0.00 67 1015.1
20260902133804 81 244 0.9 1.7 0.00 0.00 0.00 68 1015.1
20260902133304 81 244 0.9 4.3 0.00 0.00 0.00 69 1015.0
20260902131804 80 189 0.9 1.7 0.00 0.00 0.00 70 1014.8
20260902131304 79 169 0.9 2.6 0.00 0.00 0.00 71 1014.8
20260902130804 79 167 0.0 0.9 0.00 0.00 0.00 73 1014.7
20260902130304 78 167 0.0 0.0 0.00 0.00 0.00 74 1014.7
20260902124804 76 167 0.0 0.0 0.00 0.00 0.00 75 1014.6
20260902124304 76 167 0.0 0.0 0.00 0.00 0.00 75 1014.6
20260902123804 76 167 0.0 0.0 0.00 0.00 0.00 74 1014.6
20260902121804 76 167 0.0 0.0 0.00 0.00 0.00 73 1014.3
20260902121305 76 167 0.0 0.0 0.00 0.00 0.00 73 1014.3
20260902120804 76 167 0.0 0.0 0.00 0.00 0.00 72 1014.3
20260902120304 76 167 0.0 0.0 0.00 0.00 0.00 72 1014.3
20260902114804 77 167 0.0 0.0 0.00 0.00 0.00 72 1014.2
20260902114304 77 167 0.0 0.0 0.00 0.00 0.00 72 1014.2
20260902113804 77 167 0.0 0.0 0.00 0.00 0.00 72 1014.1
20260902113304 76 167 0.0 0.0 0.00 0.00 0.00 72 1014.1
20260902111804 76 167 0.0 0.0 0.00 0.00 0.00 72 1014.2
20260902111304 76 167 0.0 0.0 0.00 0.00 0.00 72 1014.2
20260902110304 76 167 0.0 2.6 0.00 0.00 0.00 72 1014.1
20260902104804 77 167 0.0 0.9 0.00 0.00 0.00 70 1014.0
20260902104304 77 167 0.0 0.0 0.00 0.00 0.00 70 1014.0
20260902103804 77 167 0.0 0.0 0.00 0.00 0.00 70 1014.0
20260902101804 77 167 0.0 0.0 0.00 0.00 0.00 68 1014.1
20260902101304 77 167 0.0 2.6 0.00 0.00 0.00 68 1014.1
20260902100304 78 165 0.0 4.3 0.00 0.00 0.00 67 1014.2
20260902094804 78 169 0.0 0.0 0.00 0.00 0.00 66 1014.1
20260902094304 78 169 0.0 0.0 0.00 0.00 0.00 66 1014.1
20260902093804 78 169 0.0 0.0 0.00 0.00 0.00 66 1014.1
20260902091804 78 165 0.0 0.0 0.00 0.00 0.00 67 1014.1
20260902091304 78 165 0.0 0.9 0.00 0.00 0.00 67 1014.2
20260902090804 78 165 0.0 0.0 0.00 0.00 0.00 67 1014.1
20260902084804 79 165 0.0 0.9 0.00 0.00 0.00 68 1014.2
20260902084305 79 165 0.0 0.0 0.00 0.00 0.00 69 1014.2
20260902083805 79 165 0.9 2.6 0.00 0.00 0.00 68 1014.2
20260902083305 79 160 0.0 2.6 0.00 0.00 0.00 69 1014.1
20260902081805 79 161 0.0 0.0 0.00 0.00 0.00 68 1014.1
20260902081305 79 161 0.0 0.0 0.00 0.00 0.00 68 1014.1
20260902080805 80 161 0.0 0.0 0.00 0.00 0.00 67 1014.2
20260902074805 80 161 1.7 4.3 0.00 0.00 0.00 67 1014.2
20260902074305 80 161 1.7 4.3 0.00 0.00 0.00 67 1014.2
20260902073805 80 161 0.9 1.7 0.00 0.00 0.00 68 1014.2
20260902073305 80 161 0.0 0.9 0.00 0.00 0.00 67 1014.3
20260902071805 81 161 0.0 0.0 0.00 0.00 0.00 67 1014.4
20260902071305 81 161 0.0 4.3 0.00 0.00 0.00 67 1014.4
20260902070805 81 161 0.9 4.3 0.00 0.00 0.00 67 1014.5
20260902070305 81 161 1.7 4.3 0.00 0.00 0.00 67 1014.4
20260902064305 82 161 0.0 0.9 0.00 0.00 0.00 65 1014.4
20260902063805 82 161 0.0 0.9 0.00 0.00 0.00 65 1014.5
20260902063305 82 161 0.0 5.2 0.00 0.00 0.00 65 1014.5
20260902061305 83 161 0.9 4.3 0.00 0.00 0.00 64 1014.4
20260902060805 83 161 0.9 1.7 0.00 0.00 0.00 64 1014.5
20260902060305 83 158 2.6 7.0 0.00 0.00 0.00 64 1014.4
20260902054805 83 156 3.5 7.0 0.00 0.00 0.00 64 1014.4
20260902054305 83 174 2.6 8.7 0.00 0.00 0.00 63 1014.4
20260902053805 84 169 4.3 7.8 0.00 0.00 0.00 63 1014.4
20260902051805 84 171 4.3 8.7 0.00 0.00 0.00 61 1014.3
20260902051305 84 163 6.1 13.0 0.00 0.00 0.00 61 1014.3
20260902050805 85 157 7.8 13.9 0.00 0.00 0.00 61 1014.2
20260902050305 85 151 6.1 13.0 0.00 0.00 0.00 60 1014.2
20260902044805 85 161 6.1 11.3 0.00 0.00 0.00 59 1014.3
20260902043805 86 151 7.8 12.2 0.00 0.00 0.00 58 1014.3
20260902043305 86 149 7.8 12.2 0.00 0.00 0.00 57 1014.2
20260902041806 86 163 7.0 11.3 0.00 0.00 0.00 57 1014.2
20260902041305 86 157 5.2 8.7 0.00 0.00 0.00 57 1014.2
20260902040805 86 152 6.1 8.7 0.00 0.00 0.00 58 1014.1
20260902040305 86 162 5.2 8.7 0.00 0.00 0.00 58 1014.0
20260902034805 86 154 6.1 8.7 0.00 0.00 0.00 57 1014.0
20260902034305 86 159 6.1 7.8 0.00 0.00 0.00 56 1013.9
20260902033805 86 154 3.5 4.3 0.00 0.00 0.00 56 1013.8
20260902033305 87 150 2.6 7.0 0.00 0.00 0.00 55 1013.8
20260902031805 87 132 2.6 7.8 0.00 0.00 0.00 54 1013.7
20260902031305 88 145 1.7 8.7 0.00 0.00 0.00 54 1013.6
20260902030805 88 153 4.3 7.8 0.00 0.00 0.00 53 1013.6
20260902030305 88 145 6.1 10.4 0.00 0.00 0.00 53 1013.5
20260902024804 88 148 5.2 7.8 0.00 0.00 0.00 51 1013.1
20260902024304 88 149 6.1 10.4 0.00 0.00 0.00 50 1013.1
20260902023805 89 175 4.3 8.7 0.00 0.00 0.00 49 1013.0
20260902023305 89 158 6.1 12.2 0.00 0.00 0.00 49 1012.9
20260902021304 90 150 7.8 15.6 0.00 0.00 0.00 45 1012.5
20260902020804 90 128 5.2 12.2 0.00 0.00 0.00 44 1012.4
20260902020304 90 125 4.3 8.7 0.00 0.00 0.00 44 1012.4
20260902014805 91 130 5.2 7.8 0.00 0.00 0.00 43 1012.3
20260902014305 91 120 4.3 8.7 0.00 0.00 0.00 43 1012.2
20260902013805 91 125 3.5 7.8 0.00 0.00 0.00 43 1012.2
20260902013305 91 121 2.6 7.0 0.00 0.00 0.00 43 1012.1
20260902011805 92 123 3.5 7.8 0.00 0.00 0.00 42 1011.9
20260902011304 92 101 5.2 8.7 0.00 0.00 0.00 41 1011.8
20260902010805 92 117 3.5 8.7 0.00 0.00 0.00 41 1011.8
20260902010305 92 110 1.7 8.7 0.00 0.00 0.00 41 1011.7
20260902004804 93 120 4.3 8.7 0.00 0.00 0.00 41 1011.7
20260902004304 93 129 4.3 8.7 0.00 0.00 0.00 40 1011.8
20260902003804 93 130 5.2 8.7 0.00 0.00 0.00 40 1011.8
20260902003305 93 122 7.8 15.6 0.00 0.00 0.00 40 1011.9
20260902001805 94 127 8.7 13.9 0.00 0.00 0.00 39 1012.0
20260902001304 94 110 5.2 10.4 0.00 0.00 0.00 39 1012.0
20260902000805 95 130 5.2 10.4 0.00 0.00 0.00 38 1011.9
20260901234804 96 115 6.1 14.8 0.00 0.00 0.00 37 1011.9
20260901234305 96 133 5.2 13.9 0.00 0.00 0.00 36 1011.7
20260901233305 96 89 4.3 12.2 0.00 0.00 0.00 36 1011.7
20260901231805 96 88 7.8 11.3 0.00 0.00 0.00 37 1011.8
20260901231305 95 150 1.7 8.7 0.00 0.00 0.00 38 1011.8
20260901230804 95 140 5.2 12.2 0.00 0.00 0.00 38 1011.8
20260901230304 95 134 8.7 14.8 0.00 0.00 0.00 37 1011.9
20260901224805 98 145 6.1 12.2 0.00 0.00 0.00 34 1011.7
20260901224305 98 110 4.3 10.4 0.00 0.00 0.00 34 1011.7
20260901223805 97 77 4.3 8.7 0.00 0.00 0.00 34 1011.7
20260901223305 98 111 6.1 10.4 0.00 0.00 0.00 34 1011.7
20260901221804 97 101 4.3 8.7 0.00 0.00 0.00 34 1011.9
20260901221305 97 109 5.2 11.3 0.00 0.00 0.00 34 1011.8
20260901220805 97 95 3.5 11.3 0.00 0.00 0.00 34 1011.8
20260901220305 98 119 1.7 12.2 0.00 0.00 0.00 35 1011.8
20260901213805 99 157 4.3 7.8 0.00 0.00 0.00 33 1011.9
20260901213305 99 94 4.3 13.0 0.00 0.00 0.00 33 1012.0
20260901211805 98 146 4.3 12.2 0.00 0.00 0.00 35 1012.0
20260901211304 98 162 2.6 10.4 0.00 0.00 0.00 34 1012.1
20260901210305 97 190 2.6 14.8 0.00 0.00 0.00 35 1012.3
20260901204304 98 80 4.3 10.4 0.00 0.00 0.00 35 1012.7
20260901203805 97 119 7.0 12.2 0.00 0.00 0.00 36 1012.7
20260901203305 97 193 4.3 13.9 0.00 0.00 0.00 37 1012.7
20260901201804 97 155 11.3 14.8 0.00 0.00 0.00 38 1012.9
20260901201304 97 112 5.2 10.4 0.00 0.00 0.00 37 1013.1
20260901200304 98 37 2.6 12.2 0.00 0.00 0.00 36 1013.3
20260901194805 97 152 5.2 10.4 0.00 0.00 0.00 38 1013.3
20260901194304 97 157 7.8 13.0 0.00 0.00 0.00 38 1013.4
20260901193804 96 159 4.3 13.9 0.00 0.00 0.00 39 1013.5
20260901193304 96 153 5.2 14.8 0.00 0.00 0.00 39 1013.5
20260901191305 96 167 9.6 14.8 0.00 0.00 0.00 39 1013.8
20260901184806 96 94 6.1 13.0 0.00 0.00 0.00 40 1014.2
20260901184304 95 167 6.1 15.6 0.00 0.00 0.00 41 1014.3
20260901183305 95 145 8.7 13.9 0.00 0.00 0.00 41 1014.6
20260901181804 94 187 4.3 13.9 0.00 0.00 0.00 43 1014.8
20260901181305 94 127 5.2 11.3 0.00 0.00 0.00 43 1014.8
20260901180805 94 127 5.2 14.8 0.00 0.00 0.00 44 1015.0
20260901180305 94 156 7.8 17.4 0.00 0.00 0.00 44 1015.0
20260901174804 93 126 3.5 13.0 0.00 0.00 0.00 46 1015.2